Regional Weather Roundup
Issued by NWS Goodland, KS

Home | Current Version | Previous Version | Graphics & Text | Print | Product List | Glossary On
Versions: 1 2 3 4 5 6 7 8 9 10 11 12 13 14 15 16 17 18 19 20 21 22 23 24 25 26 27 28 29 30 31 32 33 34 35 36 37 38 39 40 41 42 43 44 45 46 47 48 49 50
000
ASUS43 KGLD 260908
RWRGLD

GOODLAND FORECAST AREA HOURLY WEATHER ROUNDUP
NATIONAL WEATHER SERVICE GOODLAND KS
300 AM MDT THU APR 26 2018

...OFFICIAL OBSERVATIONS...

CITY           SKY/WX    TMP DP  RH WIND       PRES   REMARKS
GOODLAND KS    CLEAR     43  32  65 SW20G29   29.92F
HILL CITY KS   CLEAR     37  35  92 CALM      29.99F
IMPERIAL NEB   CLOUDY    41  34  76 SW7       29.93S
MCCOOK NEB     MOCLDY    39  34  82 SW7       29.93F
AKRON CO       PTCLDY    47  28  47 NW18      29.96F
BURLINGTON CO  CLEAR     36  32  85 SW12      29.94F
LIMON CO       CLEAR     34  27  75 VRB6      29.97F
$$

...UNOFFICIAL OBSERVATIONS...

CITY           SKY/WX    TMP DP  RH WIND       PRES   REMARKS
COLBY KS       CLEAR     34  32  93 SW7       29.96F
NORTON KS      CLEAR     39  34  81 S5        29.96
SHARON SPRINGS   N/A     39  33  79 SW13        N/A
KIT CARSON CO    N/A     35  29  80 CALM        N/A
YUMA CO        FAIR      43  27  52 W13       29.93R
$$



USA.gov is the U.S. government's official web portal to all federal, state and local government web resources and services.